Home > Weather > Offenburg > Past weeks

Flag for Germany Past Weather in Offenburg, Baden-Württemberg, Germany — Yesterday and Last 2 Weeks

Now
61 °F

Overcast.


Feels Like: 61 °F
Forecast: 58 / 72 °F
Wind: No wind

Location: Lahr

Current Time: May 28, 2016 at 6:10:56 AM

Latest Report: May 28, 2016 at 4:00 AM


Visibility: 4 mi

Pressure: 29.93 "Hg

Humidity: 93%

Dew Point: 58 °F

Location of OffenburgLocation

Past Weather in Offenburg — Graph

°F

Offenburg Temperature Yesterday

Maximum temperature yesterday: 78 °F (at 4:00 PM)
Minimum temperature yesterday: 57 °F (at 6:00 AM)
Average temperature yesterday: 68 °F

High & Low Weather Summary for the Past Weeks

 TemperatureHumidityPressure
High78 °F (May 27, 4:00 PM)100% (May 14, 6:00 AM)30.22 "Hg (May 14, 6:00 AM)
Low44 °F (May 15, 7:00 AM)33% (May 22, 1:00 PM)29.47 "Hg (May 13, 4:00 AM)
Average58 °F74%29.97 "Hg
* Reported May 13 4:00 AM — May 28 4:00 AM, Offenburg, Weather by CustomWeather, © 2016

Note: Actual official high and low records may vary slightly from our data, if they occured in-between our weather recording intervals... More about our weather records

Advertising

Offenburg Weather History for the Previous 24 Hours

Scroll right to see more
 ConditionsComfort  
Time TempWeatherWind HumidityBarometerVisibility
4:00 AM
Sat, May 28
61 °FOvercast.No wind93%29.93 "Hg4 mi
3:00 AM60 °FPassing clouds.1 mph92%29.93 "Hg5 mi
1:00 AM63 °FClear.1 mph84%29.92 "Hg12 mi
12:00 AM64 °FClear.2 mph89%29.93 "Hg8 mi
10:00 PM
Fri, May 27
68 °FOvercast.2 mph77%29.93 "Hg14 mi
9:00 PM69 °FOvercast.3 mph75%29.91 "Hg31 mi
7:00 PM74 °FPartly sunny.5 mph60%29.90 "Hg22 mi
6:00 PM76 °FScattered clouds.7 mph50%29.90 "Hg22 mi
4:00 PM78 °FScattered clouds.3 mph48%29.90 "Hg25 mi
3:00 PM78 °FPartly sunny.3 mph48%29.91 "Hg25 mi
1:00 PM75 °FOvercast.1 mph55%29.93 "Hg19 mi
12:00 PM72 °FPartly sunny.2 mph57%29.95 "Hg17 mi
10:00 AM65 °FPartly sunny.2 mph76%29.98 "Hg11 mi
9:00 AM63 °FOvercast.1 mph81%29.99 "Hg17 mi
8:00 AMN/APassing clouds.3 mphN/AN/A14 mi
7:00 AM58 °FOvercast.1 mph92%29.95 "Hg25 mi
6:00 AM57 °FOvercast.1 mph89%29.94 "Hg25 mi
Weather by CustomWeather, © 2016

See weather overviewHow to use our weather pages